TimeCDT,TemperatureF,Dew PointF,Humidity,Sea Level PressureIn,VisibilityMPH,Wind Direction,Wind SpeedMPH,Gust SpeedMPH,PrecipitationIn,Events,Conditions,WindDirDegrees,DateUTC
12:52 AM,44.1,42.1,93,30.00,10.0,Calm,Calm,-,N/A,,Partly Cloudy,0,2012-10-15 05:52:00
1:52 AM,44.1,42.1,93,30.00,10.0,Calm,Calm,-,N/A,,Clear,0,2012-10-15 06:52:00
2:48 AM,42.8,39.2,87,30.00,1.8,Calm,Calm,-,N/A,,Clear,0,2012-10-15 07:48:00
2:52 AM,42.1,39.9,92,30.00,1.5,Calm,Calm,-,N/A,,Clear,0,2012-10-15 07:52:00
2:58 AM,42.8,39.2,87,29.99,3.0,Calm,Calm,-,N/A,,Clear,0,2012-10-15 07:58:00
3:52 AM,44.1,42.1,93,29.99,9.0,South,3.5,-,N/A,,Clear,180,2012-10-15 08:52:00
4:52 AM,39.9,39.0,97,29.99,8.0,Calm,Calm,-,N/A,,Clear,0,2012-10-15 09:52:00
5:31 AM,42.8,39.2,87,29.98,1.8,Calm,Calm,-,N/A,,Clear,0,2012-10-15 10:31:00
5:43 AM,39.2,39.2,100,29.98,3.0,Calm,Calm,-,N/A,,Clear,0,2012-10-15 10:43:00
5:52 AM,41.0,39.0,93,29.99,2.5,Calm,Calm,-,N/A,,Clear,0,2012-10-15 10:52:00
6:00 AM,41.0,39.2,93,29.99,8.0,Calm,Calm,-,N/A,,Clear,0,2012-10-15 11:00:00
6:52 AM,41.0,39.0,93,30.00,2.0,Calm,Calm,-,N/A,,Clear,0,2012-10-15 11:52:00
7:02 AM,39.2,37.4,93,30.00,8.0,Calm,Calm,-,N/A,,Clear,0,2012-10-15 12:02:00
7:22 AM,39.2,37.4,93,30.00,1.8,Calm,Calm,-,N/A,,Clear,0,2012-10-15 12:22:00
7:28 AM,41.0,39.2,93,30.00,3.0,Calm,Calm,-,N/A,,Clear,0,2012-10-15 12:28:00
7:52 AM,41.0,37.9,89,30.01,2.5,Calm,Calm,-,N/A,,Clear,0,2012-10-15 12:52:00
8:00 AM,41.0,39.2,93,30.01,1.0,Calm,Calm,-,N/A,,Clear,0,2012-10-15 13:00:00
8:52 AM,48.0,45.0,89,30.02,9.0,Calm,Calm,-,N/A,,Clear,0,2012-10-15 13:52:00
9:52 AM,55.0,46.9,74,30.02,10.0,Calm,Calm,-,N/A,,Clear,0,2012-10-15 14:52:00
10:52 AM,61.0,46.9,60,30.01,10.0,South,3.5,-,N/A,,Clear,170,2012-10-15 15:52:00
11:52 AM,66.9,48.9,52,29.98,10.0,ESE,6.9,-,N/A,,Clear,120,2012-10-15 16:52:00
1:52 PM,75.0,48.9,40,29.93,10.0,South,6.9,-,N/A,,Clear,170,2012-10-15 18:52:00
2:52 PM,78.1,48.0,35,29.91,10.0,South,6.9,-,N/A,,Clear,170,2012-10-15 19:52:00
3:52 PM,78.1,50.0,37,29.88,10.0,SSE,10.4,-,N/A,,Clear,150,2012-10-15 20:52:00
4:52 PM,77.0,48.9,37,29.87,10.0,SE,11.5,-,N/A,,Clear,130,2012-10-15 21:52:00
5:52 PM,73.9,51.1,45,29.85,10.0,SE,8.1,-,N/A,,Clear,130,2012-10-15 22:52:00
6:52 PM,66.0,51.1,59,29.85,10.0,ESE,6.9,-,N/A,,Clear,120,2012-10-15 23:52:00
7:52 PM,61.0,51.1,70,29.86,10.0,East,6.9,-,N/A,,Clear,100,2012-10-16 00:52:00
8:52 PM,59.0,51.1,75,29.85,10.0,East,5.8,-,N/A,,Clear,90,2012-10-16 01:52:00
9:52 PM,55.0,50.0,83,29.85,10.0,ESE,4.6,-,N/A,,Clear,120,2012-10-16 02:52:00
10:52 PM,54.0,48.9,83,29.83,10.0,ESE,5.8,-,N/A,,Clear,120,2012-10-16 03:52:00
11:52 PM,57.0,51.1,81,29.81,10.0,East,6.9,-,N/A,,Clear,90,2012-10-16 04:52:00